| time (UTC) | temp F | wind direction | speed MPH | gust MPH | rain 1hr in | rain 24hr in | rain mn in | humidity % | barometer mb |
| 20260905161214 | 61 | 176 | 1.0 | 1.0 | 0.00 | 0.01 | 0.01 | 88 | 1018.5 |
| 20260905155713 | 59 | 167 | 1.0 | 1.0 | 0.00 | 0.01 | 0.01 | 92 | 1018.5 |
| 20260905154209 | 60 | 146 | 0.0 | 0.0 | 0.00 | 0.01 | 0.01 | 92 | 1018.6 |
| 20260905152706 | 56 | 149 | 0.0 | 0.0 | 0.00 | 0.01 | 0.01 | 98 | 1018.6 |
| 20260905151202 | 55 | 135 | 1.0 | 1.0 | 0.00 | 0.01 | 0.01 | 99 | 1018.5 |
| 20260905145700 | 55 | 113 | 0.0 | 1.0 | 0.00 | 0.01 | 0.01 | 99 | 1018.7 |
| 20260905144200 | 55 | 93 | 0.0 | 1.0 | 0.07 | 0.01 | 0.01 | 99 | 1018.5 |
| 20260905142658 | 55 | 108 | 0.0 | 0.0 | 0.00 | 0.00 | 0.00 | 99 | 1018.5 |
| 20260905141155 | 54 | 94 | 0.0 | 0.0 | 0.00 | 0.00 | 0.00 | 99 | 1018.7 |
| 20260905135651 | 53 | 91 | 1.0 | 1.0 | 0.00 | 0.00 | 0.00 | 99 | 1018.7 |
| 20260905134151 | 53 | 94 | 0.0 | 0.0 | 0.00 | 0.00 | 0.00 | 99 | 1018.6 |
| 20260905132646 | 53 | 94 | 0.0 | 1.0 | 0.00 | 0.00 | 0.00 | 99 | 1018.3 |
| 20260905131143 | 53 | 94 | 0.0 | 0.0 | 0.00 | 0.00 | 0.00 | 99 | 1018.3 |
| 20260905125643 | 54 | 94 | 0.0 | 0.0 | 0.00 | 0.00 | 0.00 | 99 | 1018.1 |
| 20260905124143 | 54 | 94 | 0.0 | 0.0 | 0.00 | 0.00 | 0.00 | 99 | 1018.2 |
| 20260905122640 | 55 | 94 | 0.0 | 0.0 | 0.00 | 0.00 | 0.00 | 99 | 1018.1 |
| 20260905121138 | 55 | 95 | 0.0 | 0.0 | 0.00 | 0.00 | 0.00 | 99 | 1018.1 |
| 20260905115637 | 55 | 95 | 0.0 | 0.0 | 0.00 | 0.00 | 0.00 | 99 | 1017.9 |
| 20260905114136 | 55 | 95 | 0.0 | 0.0 | 0.00 | 0.00 | 0.00 | 99 | 1018.0 |
| 20260905112633 | 55 | 97 | 0.0 | 0.0 | 0.00 | 0.00 | 0.00 | 99 | 1017.9 |
| 20260905111128 | 55 | 97 | 0.0 | 0.0 | 0.00 | 0.00 | 0.00 | 99 | 1017.8 |
| 20260905105623 | 55 | 97 | 0.0 | 0.0 | 0.00 | 0.00 | 0.00 | 99 | 1017.9 |
| 20260905104118 | 55 | 97 | 0.0 | 0.0 | 0.00 | 0.00 | 0.00 | 99 | 1017.9 |
| 20260905102616 | 55 | 97 | 0.0 | 0.0 | 0.00 | 0.00 | 0.00 | 99 | 1017.9 |
| 20260905101115 | 55 | 96 | 1.0 | 1.0 | 0.00 | 0.00 | 0.00 | 99 | 1017.8 |
| 20260905095612 | 55 | 96 | 0.0 | 0.0 | 0.00 | 0.00 | 0.00 | 99 | 1017.9 |
| 20260905094108 | 55 | 99 | 0.0 | 1.0 | 0.00 | 0.00 | 0.00 | 99 | 1017.8 |
| 20260905092604 | 54 | 109 | 0.0 | 0.0 | 0.00 | 0.00 | 0.00 | 99 | 1017.9 |
| 20260905091100 | 54 | 125 | 0.0 | 0.0 | 0.00 | 0.00 | 0.00 | 99 | 1017.9 |
| 20260905085600 | 54 | 112 | 0.0 | 0.0 | 0.00 | 0.00 | 0.00 | 99 | 1017.9 |
| 20260905084056 | 55 | 150 | 0.0 | 0.0 | 0.00 | 0.00 | 0.00 | 98 | 1017.8 |
| 20260905082554 | 55 | 151 | 0.0 | 0.0 | 0.00 | 0.00 | 0.00 | 98 | 1017.8 |
| 20260905081050 | 55 | 151 | 0.0 | 0.0 | 0.00 | 0.00 | 0.00 | 98 | 1017.7 |
| 20260905075550 | 55 | 154 | 0.0 | 1.0 | 0.00 | 0.00 | 0.00 | 98 | 1017.4 |
| 20260905074045 | 56 | 144 | 0.0 | 0.0 | 0.00 | 0.00 | 0.00 | 98 | 1017.4 |
| 20260905072541 | 55 | 136 | 0.0 | 0.0 | 0.00 | 0.00 | 0.00 | 98 | 1017.6 |
| 20260905071039 | 56 | 137 | 0.0 | 0.0 | 0.00 | 0.00 | 0.00 | 98 | 1017.3 |
| 20260905065534 | 56 | 136 | 0.0 | 0.0 | 0.00 | 0.29 | 0.29 | 98 | 1017.4 |
| 20260905064031 | 55 | 134 | 0.0 | 0.0 | 0.00 | 0.29 | 0.29 | 98 | 1017.4 |
| 20260905062526 | 56 | 146 | 0.0 | 0.0 | 0.00 | 0.29 | 0.29 | 97 | 1017.1 |
| 20260905061026 | 56 | 118 | 0.0 | 0.0 | 0.00 | 0.29 | 0.29 | 98 | 1017.1 |
| 20260905055522 | 55 | 134 | 0.0 | 0.0 | 0.00 | 0.29 | 0.29 | 98 | 1017.1 |
| 20260905054021 | 55 | 149 | 0.0 | 1.0 | 0.00 | 0.29 | 0.29 | 99 | 1017.1 |
| 20260905052521 | 55 | 86 | 0.0 | 0.0 | 0.00 | 0.29 | 0.29 | 99 | 1016.9 |
| 20260905051020 | 55 | 87 | 0.0 | 0.0 | 0.00 | 0.29 | 0.29 | 99 | 1016.8 |
| 20260905045519 | 55 | 87 | 0.0 | 1.0 | 0.00 | 0.29 | 0.29 | 99 | 1016.7 |
| 20260905044014 | 55 | 87 | 0.0 | 0.0 | 0.00 | 0.29 | 0.29 | 98 | 1016.8 |
| 20260905042514 | 55 | 89 | 0.0 | 0.0 | 0.00 | 0.29 | 0.29 | 98 | 1016.6 |
| 20260905041012 | 55 | 92 | 1.0 | 1.0 | 0.00 | 0.29 | 0.29 | 97 | 1016.5 |
| 20260905035511 | 56 | 167 | 0.0 | 0.0 | 0.00 | 0.29 | 0.29 | 97 | 1016.3 |
| 20260905034008 | 57 | 164 | 0.0 | 1.0 | 0.00 | 0.29 | 0.29 | 95 | 1016.2 |
| 20260905032505 | 57 | 120 | 2.0 | 3.0 | 0.05 | 0.29 | 0.29 | 95 | 1016.1 |
| 20260905031002 | 57 | 171 | 1.0 | 1.0 | 0.00 | 0.28 | 0.28 | 96 | 1015.9 |
| 20260905025458 | 57 | 199 | 2.0 | 2.0 | 0.00 | 0.28 | 0.28 | 95 | 1015.8 |
| 20260905023956 | 57 | 177 | 1.0 | 1.0 | 0.07 | 0.28 | 0.28 | 95 | 1015.7 |
| 20260905022456 | 57 | 176 | 2.0 | 2.0 | 0.05 | 0.27 | 0.27 | 94 | 1015.8 |
| 20260905020953 | 57 | 170 | 0.0 | 1.0 | 0.00 | 0.26 | 0.26 | 93 | 1015.9 |
| 20260905015451 | 58 | 132 | 0.0 | 0.0 | 0.07 | 0.26 | 0.26 | 93 | 1015.7 |
| 20260905013947 | 59 | 167 | 1.0 | 1.0 | 0.07 | 0.24 | 0.24 | 91 | 1015.8 |
| 20260905012445 | 61 | 51 | 1.0 | 2.0 | 0.00 | 0.22 | 0.22 | 88 | 1015.8 |
| 20260905010945 | 62 | 172 | 1.0 | 1.0 | 0.00 | 0.22 | 0.22 | 82 | 1015.6 |
| 20260905005443 | 63 | 184 | 3.0 | 7.0 | 0.00 | 0.22 | 0.22 | 76 | 1015.6 |
| 20260905003939 | 64 | 196 | 5.0 | 8.0 | 0.00 | 0.22 | 0.22 | 75 | 1015.3 |
| 20260905002437 | 65 | 215 | 3.0 | 5.0 | 0.00 | 0.22 | 0.22 | 75 | 1015.3 |
| 20260905000932 | 64 | 185 | 4.0 | 6.0 | 0.00 | 0.22 | 0.22 | 73 | 1014.9 |
| 20260904235431 | 65 | 174 | 1.0 | 1.0 | 0.00 | 0.22 | 0.22 | 73 | 1014.9 |
| 20260904233927 | 65 | 179 | 1.0 | 2.0 | 0.00 | 0.22 | 0.22 | 73 | 1014.9 |
| 20260904232426 | 66 | 171 | 1.0 | 2.0 | 0.00 | 0.22 | 0.22 | 70 | 1014.6 |
| 20260904230924 | 66 | 220 | 1.0 | 1.0 | 0.00 | 0.22 | 0.22 | 73 | 1014.7 |
| 20260904225422 | 67 | 231 | 3.0 | 6.0 | 0.00 | 0.22 | 0.22 | 72 | 1014.6 |
| 20260904223918 | 65 | 172 | 0.0 | 1.0 | 0.00 | 0.22 | 0.22 | 78 | 1014.6 |
| 20260904222414 | 65 | 162 | 1.0 | 1.0 | 0.00 | 0.22 | 0.22 | 83 | 1014.6 |
| 20260904220910 | 62 | 175 | 1.0 | 1.0 | 0.00 | 0.22 | 0.22 | 85 | 1014.8 |
| 20260904215405 | 61 | 164 | 0.0 | 1.0 | 0.00 | 0.22 | 0.22 | 88 | 1014.5 |
| 20260904213901 | 60 | 166 | 2.0 | 3.0 | 0.00 | 0.22 | 0.22 | 88 | 1014.5 |
| 20260904212358 | 60 | 161 | 0.0 | 0.0 | 0.07 | 0.22 | 0.22 | 88 | 1014.5 |
| 20260904210855 | 60 | 180 | 0.0 | 0.0 | 0.05 | 0.20 | 0.20 | 91 | 1014.5 |
| 20260904205352 | 61 | 157 | 1.0 | 1.0 | 0.00 | 0.19 | 0.19 | 86 | 1014.5 |
| 20260904203847 | 64 | 191 | 3.0 | 5.0 | 0.00 | 0.19 | 0.19 | 73 | 1013.9 |
| 20260904202346 | 64 | 264 | 2.0 | 3.0 | 0.00 | 0.19 | 0.19 | 75 | 1014.0 |
| 20260904200842 | 64 | 179 | 3.0 | 6.0 | 0.00 | 0.19 | 0.19 | 76 | 1013.8 |
| 20260904195339 | 64 | 219 | 2.0 | 2.0 | 0.00 | 0.19 | 0.19 | 78 | 1014.0 |
| 20260904193835 | 62 | 166 | 0.0 | 1.0 | 0.00 | 0.19 | 0.19 | 82 | 1014.3 |
| 20260904192332 | 62 | 165 | 0.0 | 0.0 | 0.00 | 0.19 | 0.19 | 87 | 1014.2 |
| 20260904190828 | 61 | 159 | 0.0 | 1.0 | 0.00 | 0.19 | 0.19 | 90 | 1014.3 |
| 20260904185326 | 60 | 161 | 0.0 | 0.0 | 0.00 | 0.19 | 0.19 | 89 | 1014.4 |
| 20260904183822 | 59 | 171 | 1.0 | 1.0 | 0.07 | 0.19 | 0.19 | 89 | 1014.2 |
| 20260904182319 | 62 | 123 | 0.0 | 0.0 | 0.00 | 0.18 | 0.18 | 87 | 1014.1 |
| 20260904180815 | 61 | 52 | 0.0 | 0.0 | 0.00 | 0.18 | 0.18 | 89 | 1013.9 |
| 20260904175314 | 60 | 53 | 0.0 | 0.0 | 0.00 | 0.18 | 0.18 | 90 | 1014.0 |
| 20260904173812 | 60 | 68 | 0.0 | 0.0 | 0.00 | 0.18 | 0.18 | 91 | 1013.7 |
| 20260904172308 | 60 | 66 | 0.0 | 0.0 | 0.00 | 0.18 | 0.18 | 90 | 1013.7 |
| 20260904170807 | 59 | 68 | 0.0 | 0.0 | 0.00 | 0.18 | 0.18 | 94 | 1013.6 |
| 20260904165305 | 58 | 76 | 0.0 | 0.0 | 0.00 | 0.18 | 0.18 | 95 | 1013.6 |
| 20260904163759 | 58 | 100 | 0.0 | 0.0 | 0.00 | 0.18 | 0.18 | 96 | 1013.3 |
| 20260904162300 | 57 | 121 | 0.0 | 0.0 | 0.00 | 0.18 | 0.18 | 97 | 1013.4 |